Погода в Плесе

Россия / Архангельская область     61°42′28″N   42°17′21″E
темп.,
°C
ветер,
м/с
пор.,
м/с
влажн.,
%
обл.,
%
осадки,
мм/ч
давл.,
гПа
погр.,
м
24 сентября, пт
пт2400:00+7вюв31094100 0.0 1015470
03:00+8вюв31094100 0.0 1013573
06:00+8вюв41192100 0.0 1011560
09:00+8вюв41196100 1.4 1010745
12:00+8юв41095100 2.4 10101075
15:00+8юв41194100 2.7 1010790
18:00+8юв41096100 0.1 1010701
21:00+8юв41097100 0.5 1010675
25 сентября, сб
сб2500:00+8ююв3796100 0.1 1011643
03:00+7юв289485 0.1 1011281
06:00+6ююв389892 0.0 1010383
09:00+7ююв2894100 0.0 1010375
12:00+10ююв368589 0.0 1009717
15:00+11ююв367490 0.1 1009945
18:00+7юв399266 0.0 1009296
21:00+5юв299684 0.0 1009214
26 сентября, вс
вс2600:00+6вюв299397 0.0 1009304
03:00+6вюв2799100 0.0 1010288
06:00+7юв3691100 0.0 1011451
09:00+7вюв2689100 0.1 1012448
12:00+9в2477100 0.0 1014766
15:00+10всв2477100 0.0 1016494
18:00+8ссв2689100 0.0 1018237
21:00+7ссв2597100 0.1 1020173
27 сентября, пн
пн2700:00+7ссв2696100 0.0 1022230
03:00+7ссв2797100 0.0 1024279
06:00+7ссв2697100 0.1 1025321
09:00+8св368693 0.1 1027530
12:00+9св3581100 0.0 1028679
15:00+9св258498 0.1 1029523
18:00+7св1591100 0.0 1031225
21:00+7св1292100 0.0 103175
28 сентября, вт
вт2800:00+7ссз119297 0.0 103215
03:00+7сз119199 0.0 103217
06:00+7сз1187100 0.0 103238
09:00+9сз237799 0.0 1032284
12:00+12зсз245972 0.0 10321174
15:00+12зсз346173 0.0 10311163
18:00+10зсз2679100 0.0 1031175
21:00+9зсз2783100 0.0 1030234